When you browse on this site, cookies collect data to enhance your experience and personalize the content and advertising you see.
Visit our Privacy Policy to learn more. By continuing to use the site, you agree to this use of cookies and data.
  • In Latvia
  • List of Countries
  • For 7 days
  • Water Temperature
  • Weather Map
  • Weather Widgets
  • user-avatar
    Login

    Hourly Weather Dankow

    Today, 23 February, Sunday

    Time Temperature Precipitation Wind Pressure Humidity
    00:00 +6°C° 0.1 mm 9 mps 743 mmHg 67%
    01:00 +5°C° 0 mm 9 mps 743 mmHg 73%
    02:00 +5°C° 0.3 mm 8 mps 742 mmHg 72%
    03:00 +4°C° 0.3 mm 8 mps 742 mmHg 71%
    04:00 +2°C° 0.3 mm 8 mps 742 mmHg 70%
    05:00 +3°C° 0.5 mm 7 mps 742 mmHg 73%
    06:00 +3°C° 0.5 mm 7 mps 742 mmHg 76%
    07:00 +3°C° 0 mm 6 mps 743 mmHg 81%
    08:00 +4°C° 0.1 mm 7 mps 743 mmHg 75%
    09:00 +4°C° 0.1 mm 8 mps 742 mmHg 70%
    10:00 +5°C° 0.1 mm 9 mps 742 mmHg 64%
    11:00 +5°C° 0.1 mm 8 mps 742 mmHg 67%
    12:00 +4°C° 0.1 mm 8 mps 741 mmHg 69%
    13:00 +4°C° 0 mm 8 mps 741 mmHg 69%
    14:00 +3°C° 0.4 mm 7 mps 739 mmHg 76%
    15:00 +2°C° 0.4 mm 6 mps 738 mmHg 84%
    16:00 +1°C° 0.4 mm 5 mps 736 mmHg 92%
    17:00 +1°C° 1 mm 4 mps 735 mmHg 93%
    18:00 +3°C° 1 mm 4 mps 734 mmHg 94%
    19:00 +3°C° 1 mm 3 mps 733 mmHg 95%
    20:00 +3°C° 1 mm 3 mps 732 mmHg 95%
    21:00 +4°C° 1 mm 2 mps 731 mmHg 95%
    22:00 +4°C° 1 mm 2 mps 730 mmHg 96%
    23:00 +3°C° 0.7 mm 4 mps 731 mmHg 94%

    Tomorrow, 24 February, Monday

    Time Temperature Precipitation Wind Pressure Humidity
    00:00 +2°C° 0.7 mm 7 mps 732 mmHg 93%
    01:00 +1°C° 0.7 mm 10 mps 733 mmHg 92%
    02:00 +1°C° 0.4 mm 10 mps 735 mmHg 85%
    03:00 +1°C° 0.4 mm 10 mps 736 mmHg 78%
    04:00 +1°C° 0.4 mm 11 mps 738 mmHg 72%
    05:00 0°C° 0 mm 10 mps 739 mmHg 73%
    06:00 0°C° 0 mm 10 mps 740 mmHg 74%
    07:00 0°C° 0 mm 9 mps 741 mmHg 76%
    08:00 0°C° 0 mm 9 mps 742 mmHg 78%
    09:00 0°C° 0 mm 9 mps 743 mmHg 80%
    10:00 +1°C° 0 mm 10 mps 743 mmHg 81%
    11:00 +1°C° 0.1 mm 9 mps 744 mmHg 77%
    12:00 +2°C° 0.1 mm 8 mps 744 mmHg 72%
    13:00 +2°C° 0.1 mm 8 mps 744 mmHg 67%
    14:00 +3°C° 0 mm 7 mps 744 mmHg 66%
    15:00 +3°C° 0 mm 6 mps 744 mmHg 66%
    16:00 +3°C° 0 mm 6 mps 744 mmHg 66%
    17:00 +2°C° 0 mm 5 mps 744 mmHg 69%
    18:00 +3°C° 0 mm 4 mps 744 mmHg 73%
    19:00 +1°C° 0 mm 4 mps 743 mmHg 76%
    20:00 +1°C° 0 mm 4 mps 743 mmHg 77%
    21:00 +1°C° 0 mm 4 mps 742 mmHg 77%
    22:00 +1°C° 0 mm 4 mps 742 mmHg 77%
    23:00 +1°C° 0.3 mm 5 mps 740 mmHg 82%

    Day after tomorrow, 25 February, Tuesday

    Time Temperature Precipitation Wind Pressure Humidity
    00:00 -1°C° 0.3 mm 6 mps 739 mmHg 88%
    01:00 -1°C° 0.3 mm 6 mps 738 mmHg 93%
    02:00 0°C° 1.1 mm 7 mps 737 mmHg 91%
    03:00 +2°C° 1.1 mm 7 mps 735 mmHg 88%
    04:00 +2°C° 1.1 mm 8 mps 734 mmHg 86%
    05:00 +4°C° 0.5 mm 8 mps 734 mmHg 87%
    06:00 +5°C° 0.5 mm 8 mps 733 mmHg 87%
    07:00 +5°C° 0.5 mm 8 mps 733 mmHg 88%
    08:00 +6°C° 0.1 mm 8 mps 733 mmHg 85%
    09:00 +7°C° 0.1 mm 8 mps 733 mmHg 81%
    10:00 +8°C° 0.1 mm 9 mps 732 mmHg 77%
    11:00 +9°C° 0.1 mm 8 mps 732 mmHg 75%
    12:00 +9°C° 0.1 mm 8 mps 732 mmHg 73%
    13:00 +9°C° 0.1 mm 7 mps 732 mmHg 71%
    14:00 +9°C° 0.1 mm 7 mps 731 mmHg 73%
    15:00 +8°C° 0.1 mm 7 mps 731 mmHg 74%
    16:00 +8°C° 0.1 mm 6 mps 730 mmHg 76%
    17:00 +7°C° 0.2 mm 6 mps 730 mmHg 78%
    18:00 +7°C° 0.2 mm 6 mps 730 mmHg 80%
    19:00 +5°C° 0.2 mm 6 mps 731 mmHg 82%
    20:00 +5°C° 0.3 mm 6 mps 731 mmHg 79%
    21:00 +5°C° 0.3 mm 5 mps 731 mmHg 75%
    22:00 +4°C° 0.3 mm 4 mps 731 mmHg 72%
    23:00 +4°C° 0 mm 4 mps 731 mmHg 72%

    26 February, Wednesday

    Time Temperature Precipitation Wind Pressure Humidity
    00:00 +3°C° 0 mm 4 mps 731 mmHg 73%
    01:00 +1°C° 0 mm 4 mps 731 mmHg 73%
    02:00 +1°C° 0 mm 4 mps 731 mmHg 74%
    03:00 +1°C° 0 mm 5 mps 730 mmHg 76%
    04:00 0°C° 0 mm 5 mps 730 mmHg 77%
    05:00 0°C° 0 mm 4 mps 730 mmHg 77%
    06:00 0°C° 0 mm 4 mps 730 mmHg 77%
    07:00 0°C° 0 mm 4 mps 730 mmHg 77%
    08:00 +1°C° 0 mm 5 mps 730 mmHg 73%
    09:00 +2°C° 0 mm 5 mps 730 mmHg 69%
    10:00 +3°C° 0 mm 6 mps 730 mmHg 65%
    11:00 +5°C° 0 mm 5 mps 730 mmHg 62%
    12:00 +6°C° 0 mm 5 mps 730 mmHg 60%
    13:00 +6°C° 0 mm 5 mps 730 mmHg 58%
    14:00 +6°C° 0 mm 4 mps 730 mmHg 59%
    15:00 +7°C° 0 mm 3 mps 729 mmHg 60%
    16:00 +6°C° 0 mm 2 mps 729 mmHg 62%
    17:00 +5°C° 0.2 mm 3 mps 730 mmHg 67%
    18:00 +4°C° 0.2 mm 4 mps 730 mmHg 73%
    19:00 +2°C° 0.2 mm 5 mps 731 mmHg 78%
    20:00 +1°C° 0 mm 4 mps 731 mmHg 79%
    21:00 +1°C° 0 mm 4 mps 731 mmHg 79%
    22:00 +1°C° 0 mm 3 mps 731 mmHg 80%
    23:00 +1°C° 0 mm 3 mps 731 mmHg 81%

    27 February, Thursday

    Time Temperature Precipitation Wind Pressure Humidity
    00:00 +1°C° 0 mm 3 mps 732 mmHg 83%
    01:00 0°C° 0 mm 3 mps 732 mmHg 85%
    02:00 0°C° 0 mm 3 mps 732 mmHg 86%
    03:00 +1°C° 0 mm 2 mps 732 mmHg 87%
    04:00 +1°C° 0 mm 2 mps 733 mmHg 88%
    05:00 -1°C° 0.2 mm 2 mps 733 mmHg 91%
    06:00 -1°C° 0.2 mm 3 mps 734 mmHg 93%
    07:00 -1°C° 0.2 mm 3 mps 734 mmHg 96%
    08:00 -1°C° 0.1 mm 3 mps 735 mmHg 91%
    09:00 0°C° 0.1 mm 3 mps 735 mmHg 87%
    10:00 -1°C° 0.1 mm 4 mps 736 mmHg 83%
    11:00 0°C° 0.1 mm 4 mps 736 mmHg 77%
    12:00 0°C° 0.1 mm 4 mps 736 mmHg 72%
    13:00 +1°C° 0.1 mm 4 mps 737 mmHg 66%
    14:00 +1°C° 0.2 mm 4 mps 737 mmHg 70%
    15:00 0°C° 0.2 mm 4 mps 737 mmHg 73%
    16:00 0°C° 0.2 mm 4 mps 737 mmHg 77%
    17:00 0°C° 0.1 mm 3 mps 737 mmHg 79%
    18:00 0°C° 0.1 mm 3 mps 737 mmHg 80%
    19:00 -1°C° 0.1 mm 3 mps 737 mmHg 82%
    20:00 -1°C° 0 mm 3 mps 737 mmHg 84%
    21:00 -1°C° 0 mm 3 mps 737 mmHg 85%
    22:00 -2°C° 0 mm 2 mps 737 mmHg 86%
    23:00 -2°C° 0 mm 2 mps 737 mmHg 86%

    28 February, Friday

    Time Temperature Precipitation Wind Pressure Humidity
    00:00 -2°C° 0 mm 2 mps 737 mmHg 86%
    01:00 -2°C° 0 mm 2 mps 736 mmHg 85%
    02:00 -2°C° 0 mm 2 mps 736 mmHg 86%
    03:00 -2°C° 0 mm 2 mps 736 mmHg 87%
    04:00 -2°C° 0 mm 2 mps 735 mmHg 88%
    05:00 -1°C° 0 mm 2 mps 735 mmHg 87%
    06:00 -1°C° 0 mm 2 mps 735 mmHg 86%
    07:00 -1°C° 0 mm 2 mps 734 mmHg 84%
    08:00 -1°C° 0.1 mm 2 mps 734 mmHg 85%
    09:00 0°C° 0.1 mm 3 mps 734 mmHg 86%
    10:00 0°C° 0.1 mm 3 mps 733 mmHg 87%
    11:00 +1°C° 0.3 mm 2 mps 734 mmHg 90%
    12:00 +1°C° 0.3 mm 2 mps 734 mmHg 92%
    13:00 +2°C° 0.3 mm 1 mps 734 mmHg 95%
    14:00 +2°C° 0.1 mm 1 mps 734 mmHg 94%
    15:00 +2°C° 0.1 mm 1 mps 735 mmHg 93%
    16:00 +2°C° 0.1 mm 1 mps 735 mmHg 91%
    17:00 +2°C° 0 mm 1 mps 736 mmHg 91%
    18:00 +2°C° 0 mm 1 mps 736 mmHg 91%
    19:00 +1°C° 0 mm 1 mps 737 mmHg 91%
    20:00 +1°C° 0 mm 1 mps 737 mmHg 91%
    21:00 +1°C° 0 mm 1 mps 737 mmHg 91%
    22:00 -1°C° 0 mm 2 mps 738 mmHg 91%
    23:00 -1°C° 0 mm 2 mps 737 mmHg 91%
    Show more